Location: Pasarilla del Rebollar
(40.6790°N, 5.0062°W)
Time: 11:24:52
(UTC+00:00)

BREEZE-M DEB (TANK) - Pass Details

Date: 22 April 2026
Orbit: 299 x 13235 km, 49.5° (Epoch: 15 May)

Event Time Altitude Azimuth Distance (km) Brightness Sun altitude
Rises 03:37:22 0° 301° (WNW) 7,523 8.4 -20.0°
Reaches altitude 10° 03:44:21 10° 301° (WNW) 4,733 7.3 -18.9°
Maximum altitude 03:53:57 82° 215° (SW) 767 3.4 -17.5°
Drops below altitude 10° 03:57:05 10° 128° (SE) 1,619 5.4 -17.0°
Sets 03:58:25 0° 127° (SE) 2,257 6.2 -16.7°
